QPF
0.04 0.04 0.04 0.06 0.08 0.10 0.13 0.15 0.16 0.14 0.15 0.12 0.07 0.02 0.02 0.02 0.02 0.01 0.00 0.00 0.00 0.00 0.00 0.00 0.00 0.00 0.00 0.00 0.00 0.00 0.00 0.00 0.01 0.01 0.00 0.00 0.00 0.01
0.03 0.03 0.04 0.05 0.06 0.08 0.09 0.13 0.16 0.14 0.13 0.14 0.12 0.06 0.05 0.06 0.05 0.02 0.00 0.00 0.00 0.00 0.00 0.00 0.00 0.00 0.00 0.00 0.00 0.00 0.00 0.00 0.00 0.00 0.00 0.00 0.00 0.00
0.01 0.02 0.03 0.04 0.05 0.06 0.08 0.10 0.13 0.14 0.12 0.19 0.22 0.11 0.07 0.08 0.07 0.03 0.01 0.01 0.00 0.00 0.00 0.00 0.00 0.00 0.00 0.00 0.00 0.00 0.00 0.00 0.00 0.00 0.00 0.00 0.00 0.00
0.01 0.01 0.02 0.03 0.04 0.06 0.08 0.09 0.10 0.11 0.11 0.15 0.24 0.20 0.15 0.11 0.08 0.07 0.03 0.02 0.02 0.02 0.02 0.01 0.00 0.00 0.00 0.00 0.00 0.00 0.00 0.00 0.00 0.00 0.00 0.00 0.00 0.00
0.01 0.01 0.02 0.03 0.04 0.06 0.06 0.08 0.09 0.11 0.13 0.13 0.16 0.20 0.16 0.13 0.12 0.12 0.09 0.07 0.05 0.03 0.03 0.02 0.01 0.00 0.00 0.00 0.00 0.00 0.00 0.00 0.00 0.00 0.00 0.00 0.00 0.00
0.00 0.00 0.01 0.02 0.03 0.05 0.06 0.08 0.10 0.12 0.13 0.13 0.14 0.15 0.13 0.11 0.10 0.13 0.15 0.15 0.12 0.08 0.05 0.03 0.02 0.01 0.00 0.00 0.00 0.00 0.00 0.00 0.00 0.00 0.00 0.00 0.00 0.00
0.01 0.01 0.01 0.01 0.01 0.02 0.03 0.06 0.08 0.11 0.14 0.15 0.16 0.16 0.15 0.16 0.14 0.15 0.18 0.21 0.22 0.18 0.12 0.08 0.04 0.02 0.02 0.01 0.01 0.00 0.00 0.00 0.00 0.00 0.00 0.00 0.00 0.00
0.01 0.01 0.01 0.01 0.00 0.00 0.00 0.01 0.03 0.06 0.10 0.15 0.18 0.18 0.17 0.15 0.15 0.18 0.19 0.20 0.22 0.20 0.17 0.15 0.11 0.08 0.07 0.06 0.05 0.04 0.02 0.00 0.00 0.00 0.00 0.00 0.00 0.00
0.02 0.03 0.02 0.02 0.01 0.01 0.02 0.02 0.01 0.01 0.02 0.05 0.08 0.10 0.11 0.12 0.11 0.11 0.12 0.14 0.17 0.19 0.18 0.17 0.14 0.11 0.09 0.08 0.06 0.05 0.03 0.01 0.00 0.00 0.00 0.00 0.00 0.00
0.03 0.03 0.04 0.05 0.05 0.05 0.04 0.04 0.04 0.03 0.02 0.02 0.04 0.06 0.05 0.07 0.09 0.10 0.10 0.10 0.11 0.12 0.12 0.13 0.13 0.11 0.07 0.06 0.05 0.04 0.03 0.02 0.01 0.00 0.00 0.00 0.00 0.00
0.04 0.06 0.07 0.07 0.12 0.08 0.04 0.06 0.07 0.05 0.03 0.02 0.02 0.02 0.01 0.01 0.02 0.05 0.08 0.10 0.10 0.10 0.09 0.08 0.10 0.12 0.10 0.09 0.07 0.06 0.04 0.03 0.02 0.01 0.00 0.00 0.00 0.00
0.09 0.08 0.12 0.11 0.12 0.07 0.04 0.08 0.11 0.08 0.04 0.04 0.04 0.04 0.03 0.02 0.02 0.03 0.07 0.09 0.11 0.11 0.12 0.10 0.11 0.11 0.10 0.09 0.08 0.07 0.06 0.05 0.04 0.02 0.01 0.01 0.01 0.00
0.14 0.13 0.11 0.11 0.06 0.04 0.04 0.05 0.08 0.06 0.05 0.07 0.07 0.08 0.09 0.08 0.06 0.05 0.07 0.07 0.08 0.09 0.10 0.07 0.07 0.07 0.06 0.06 0.06 0.05 0.04 0.04 0.03 0.02 0.02 0.02 0.02 0.01
0.13 0.10 0.08 0.07 0.03 0.02 0.02 0.03 0.05 0.04 0.06 0.09 0.10 0.09 0.08 0.07 0.06 0.05 0.05 0.05 0.06 0.06 0.06 0.05 0.04 0.04 0.04 0.04 0.05 0.05 0.05 0.04 0.04 0.03 0.02 0.02 0.02 0.02
0.06 0.07 0.06 0.04 0.03 0.03 0.02 0.03 0.05 0.07 0.10 0.11 0.10 0.08 0.05 0.04 0.03 0.03 0.03 0.03 0.03 0.03 0.03 0.03 0.03 0.04 0.04 0.04 0.04 0.04 0.04 0.04 0.04 0.04 0.04 0.03 0.03 0.02
0.05 0.05 0.04 0.03 0.05 0.06 0.06 0.06 0.04 0.04 0.07 0.08 0.08 0.07 0.05 0.04 0.03 0.02 0.03 0.04 0.04 0.05 0.04 0.03 0.02 0.02 0.03 0.03 0.03 0.03 0.05 0.06 0.06 0.05 0.05 0.05 0.04 0.04
0.07 0.07 0.07 0.06 0.06 0.06 0.06 0.05 0.05 0.05 0.06 0.06 0.07 0.06 0.05 0.04 0.03 0.02 0.02 0.03 0.03 0.04 0.05 0.04 0.02 0.01 0.02 0.02 0.03 0.04 0.06 0.07 0.08 0.07 0.05 0.04 0.04 0.05
0.06 0.06 0.06 0.07 0.06 0.06 0.06 0.04 0.03 0.04 0.04 0.04 0.04 0.04 0.05 0.05 0.03 0.02 0.02 0.02 0.03 0.03 0.04 0.04 0.02 0.03 0.03 0.04 0.03 0.03 0.05 0.06 0.07 0.06 0.05 0.03 0.02 0.05
0.03 0.03 0.03 0.03 0.04 0.03 0.03 0.02 0.02 0.02 0.03 0.03 0.04 0.03 0.03 0.03 0.04 0.04 0.03 0.03 0.03 0.04 0.04 0.04 0.03 0.02 0.04 0.05 0.05 0.02 0.02 0.04 0.04 0.04 0.04 0.03 0.03 0.04
0.01 0.01 0.01 0.02 0.03 0.02 0.02 0.02 0.02 0.02 0.03 0.02 0.02 0.02 0.02 0.03 0.03 0.04 0.03 0.02 0.02 0.02 0.03 0.03 0.02 0.01 0.02 0.02 0.03 0.03 0.02 0.02 0.03 0.03 0.03 0.03 0.03 0.03
0.00 0.00 0.00 0.01 0.01 0.01 0.01 0.01 0.01 0.01 0.01 0.01 0.02 0.02 0.02 0.02 0.03 0.02 0.02 0.01 0.01 0.01 0.02 0.03 0.02 0.00 0.01 0.02 0.02 0.03 0.03 0.01 0.01 0.01 0.01 0.01 0.01 0.02
0.00 0.00 0.00 0.00 0.00 0.00 0.00 0.01 0.01 0.01 0.01 0.01 0.01 0.01 0.01 0.02 0.01 0.01 0.01 0.01 0.02 0.02 0.02 0.02 0.01 0.01 0.01 0.02 0.02 0.02 0.02 0.02 0.01 0.01 0.01 0.01 0.01 0.02
0.00 0.00 0.00 0.00 0.00 0.00 0.00 0.00 0.00 0.00 0.00 0.00 0.00 0.00 0.00 0.01 0.01 0.01 0.01 0.01 0.01 0.01 0.01 0.01 0.01 0.01 0.01 0.02 0.02 0.02 0.02 0.01 0.02 0.02 0.02 0.01 0.01 0.01
MSLP
1014.07 1014.32 1014.59 1014.88 1015.17 1015.44 1015.66 1015.83 1015.92 1015.92 1015.85 1015.72 1015.55 1015.39 1015.27 1015.23 1015.29 1015.47 1015.76 1016.14 1016.57 1017.01 1017.41 1017.73 1017.96 1018.09 1018.12 1018.09 1018.04 1017.99 1017.98 1018.03 1018.11 1018.22 1018.33 1018.38 1018.37 1018.27
1013.72 1013.94 1014.18 1014.44 1014.71 1014.97 1015.21 1015.40 1015.53 1015.59 1015.56 1015.48 1015.34 1015.20 1015.07 1015.01 1015.03 1015.17 1015.41 1015.74 1016.15 1016.57 1016.98 1017.34 1017.62 1017.81 1017.90 1017.93 1017.93 1017.92 1017.94 1018.00 1018.10 1018.23 1018.36 1018.46 1018.49 1018.45
1013.47 1013.65 1013.85 1014.07 1014.31 1014.56 1014.80 1015.01 1015.17 1015.28 1015.31 1015.28 1015.20 1015.09 1014.98 1014.91 1014.90 1014.98 1015.17 1015.44 1015.79 1016.17 1016.57 1016.93 1017.22 1017.45 1017.60 1017.68 1017.72 1017.75 1017.80 1017.88 1017.99 1018.14 1018.29 1018.43 1018.51 1018.52
1013.30 1013.45 1013.61 1013.80 1014.00 1014.23 1014.46 1014.69 1014.88 1015.04 1015.13 1015.16 1015.14 1015.07 1014.99 1014.93 1014.90 1014.94 1015.06 1015.26 1015.54 1015.86 1016.20 1016.53 1016.82 1017.06 1017.24 1017.35 1017.43 1017.49 1017.56 1017.65 1017.78 1017.93 1018.10 1018.26 1018.39 1018.46
1013.19 1013.32 1013.45 1013.61 1013.78 1013.99 1014.22 1014.45 1014.67 1014.87 1015.02 1015.11 1015.15 1015.14 1015.09 1015.04 1015.01 1015.01 1015.08 1015.21 1015.40 1015.65 1015.92 1016.20 1016.46 1016.69 1016.86 1017.00 1017.09 1017.17 1017.25 1017.35 1017.47 1017.62 1017.79 1017.97 1018.13 1018.25
1013.13 1013.24 1013.35 1013.48 1013.64 1013.83 1014.05 1014.29 1014.53 1014.75 1014.94 1015.09 1015.18 1015.22 1015.22 1015.20 1015.17 1015.16 1015.19 1015.26 1015.38 1015.54 1015.74 1015.96 1016.17 1016.36 1016.52 1016.65 1016.75 1016.83 1016.91 1017.00 1017.10 1017.24 1017.40 1017.57 1017.75 1017.92
1013.10 1013.19 1013.29 1013.40 1013.55 1013.72 1013.93 1014.16 1014.40 1014.64 1014.85 1015.04 1015.17 1015.27 1015.31 1015.33 1015.32 1015.32 1015.33 1015.36 1015.43 1015.53 1015.65 1015.80 1015.95 1016.10 1016.23 1016.34 1016.42 1016.49 1016.56 1016.63 1016.72 1016.83 1016.96 1017.12 1017.30 1017.48
1013.09 1013.16 1013.25 1013.35 1013.48 1013.64 1013.82 1014.04 1014.27 1014.50 1014.72 1014.92 1015.09 1015.22 1015.31 1015.37 1015.41 1015.43 1015.45 1015.47 1015.51 1015.56 1015.64 1015.73 1015.82 1015.92 1016.01 1016.08 1016.15 1016.20 1016.24 1016.29 1016.35 1016.43 1016.53 1016.65 1016.81 1016.98
1013.11 1013.16 1013.23 1013.32 1013.43 1013.56 1013.73 1013.91 1014.11 1014.31 1014.52 1014.72 1014.90 1015.06 1015.20 1015.31 1015.40 1015.46 1015.51 1015.55 1015.59 1015.63 1015.66 1015.71 1015.76 1015.81 1015.85 1015.89 1015.92 1015.95 1015.97 1015.99 1016.02 1016.06 1016.13 1016.21 1016.33 1016.47
1013.17 1013.20 1013.25 1013.32 1013.41 1013.52 1013.65 1013.79 1013.95 1014.11 1014.29 1014.47 1014.65 1014.83 1015.00 1015.16 1015.30 1015.42 1015.52 1015.60 1015.66 1015.69 1015.72 1015.73 1015.74 1015.75 1015.75 1015.75 1015.76 1015.75 1015.75 1015.75 1015.75 1015.76 1015.79 1015.83 1015.89 1015.99
1013.31 1013.31 1013.33 1013.38 1013.44 1013.52 1013.62 1013.72 1013.83 1013.95 1014.09 1014.24 1014.41 1014.59 1014.78 1014.98 1015.17 1015.35 1015.50 1015.62 1015.71 1015.76 1015.78 1015.78 1015.76 1015.73 1015.70 1015.67 1015.64 1015.61 1015.58 1015.56 1015.54 1015.53 1015.52 1015.52 1015.54 1015.57
1013.53 1013.50 1013.50 1013.52 1013.57 1013.62 1013.69 1013.75 1013.82 1013.90 1013.99 1014.11 1014.25 1014.43 1014.63 1014.85 1015.08 1015.29 1015.49 1015.65 1015.77 1015.84 1015.86 1015.85 1015.81 1015.75 1015.68 1015.62 1015.56 1015.51 1015.46 1015.43 1015.39 1015.36 1015.32 1015.29 1015.27 1015.25
1013.84 1013.78 1013.76 1013.77 1013.81 1013.85 1013.89 1013.93 1013.97 1014.01 1014.07 1014.15 1014.26 1014.42 1014.61 1014.83 1015.07 1015.31 1015.53 1015.71 1015.85 1015.93 1015.95 1015.93 1015.87 1015.79 1015.70 1015.60 1015.52 1015.45 1015.39 1015.34 1015.30 1015.25 1015.21 1015.16 1015.10 1015.05
1014.25 1014.17 1014.14 1014.14 1014.17 1014.21 1014.24 1014.27 1014.29 1014.31 1014.34 1014.39 1014.48 1014.60 1014.77 1014.97 1015.20 1015.43 1015.65 1015.83 1015.97 1016.04 1016.06 1016.03 1015.96 1015.86 1015.74 1015.63 1015.53 1015.44 1015.37 1015.31 1015.26 1015.21 1015.16 1015.10 1015.04 1014.96
1014.75 1014.65 1014.61 1014.62 1014.65 1014.70 1014.74 1014.77 1014.79 1014.80 1014.81 1014.84 1014.89 1014.98 1015.11 1015.27 1015.46 1015.66 1015.85 1016.01 1016.12 1016.19 1016.20 1016.15 1016.07 1015.96 1015.83 1015.70 1015.59 1015.49 1015.41 1015.35 1015.30 1015.25 1015.20 1015.13 1015.06 1014.98
1015.32 1015.22 1015.18 1015.19 1015.24 1015.29 1015.35 1015.40 1015.42 1015.44 1015.44 1015.44 1015.46 1015.51 1015.59 1015.69 1015.83 1015.97 1016.11 1016.23 1016.32 1016.36 1016.35 1016.30 1016.21 1016.09 1015.97 1015.84 1015.72 1015.62 1015.54 1015.47 1015.41 1015.36 1015.31 1015.25 1015.18 1015.10
1015.97 1015.87 1015.83 1015.85 1015.90 1015.97 1016.04 1016.10 1016.14 1016.15 1016.15 1016.13 1016.12 1016.12 1016.15 1016.19 1016.26 1016.34 1016.42 1016.49 1016.53 1016.55 1016.53 1016.47 1016.39 1016.28 1016.17 1016.05 1015.94 1015.84 1015.75 1015.68 1015.62 1015.56 1015.50 1015.45 1015.37 1015.30
1016.66 1016.57 1016.53 1016.55 1016.61 1016.69 1016.77 1016.83 1016.87 1016.89 1016.87 1016.84 1016.80 1016.75 1016.72 1016.70 1016.70 1016.72 1016.74 1016.75 1016.77 1016.76 1016.73 1016.68 1016.61 1016.52 1016.43 1016.33 1016.24 1016.15 1016.07 1016.00 1015.93 1015.86 1015.79 1015.72 1015.65 1015.57
1017.39 1017.31 1017.28 1017.29 1017.34 1017.41 1017.49 1017.55 1017.58 1017.59 1017.56 1017.50 1017.43 1017.35 1017.27 1017.19 1017.13 1017.09 1017.06 1017.04 1017.01 1016.99 1016.97 1016.93 1016.88 1016.83 1016.77 1016.70 1016.63 1016.56 1016.48 1016.41 1016.33 1016.25 1016.17 1016.08 1015.99 1015.90
1018.13 1018.06 1018.03 1018.04 1018.07 1018.13 1018.18 1018.22 1018.24 1018.22 1018.17 1018.09 1017.99 1017.88 1017.76 1017.64 1017.54 1017.45 1017.38 1017.33 1017.29 1017.26 1017.24 1017.22 1017.21 1017.18 1017.16 1017.13 1017.08 1017.03 1016.97 1016.89 1016.81 1016.72 1016.61 1016.51 1016.40 1016.29
1018.84 1018.78 1018.76 1018.75 1018.77 1018.80 1018.82 1018.83 1018.81 1018.77 1018.70 1018.60 1018.48 1018.34 1018.19 1018.05 1017.92 1017.81 1017.72 1017.65 1017.61 1017.58 1017.57 1017.57 1017.58 1017.59 1017.60 1017.60 1017.58 1017.55 1017.50 1017.43 1017.34 1017.24 1017.12 1016.99 1016.86 1016.72
1019.48 1019.44 1019.42 1019.41 1019.40 1019.40 1019.38 1019.36 1019.31 1019.24 1019.14 1019.02 1018.89 1018.73 1018.58 1018.43 1018.29 1018.18 1018.08 1018.01 1017.96 1017.94 1017.94 1017.96 1017.99 1018.02 1018.06 1018.08 1018.09 1018.08 1018.04 1017.98 1017.90 1017.79 1017.66 1017.52 1017.37 1017.21
1020.00 1019.99 1019.98 1019.96 1019.94 1019.90 1019.86 1019.79 1019.72 1019.62 1019.50 1019.37 1019.23 1019.08 1018.93 1018.79 1018.66 1018.55 1018.46 1018.39 1018.35 1018.34 1018.35 1018.37 1018.41 1018.46 1018.51 1018.55 1018.58 1018.59 1018.57 1018.52 1018.45 1018.34 1018.22 1018.07 1017.91 1017.73
Thickness
5705 5704 5703 5702 5702 5701 5698 5695 5688 5683 5685 5692 5695 5700 5701 5700 5698 5694 5693 5692 5691 5690 5689 5689 5688 5689 5690 5690 5692 5693 5694 5695 5697 5698 5700 5702 5704 5706
5700 5698 5698 5698 5698 5697 5695 5693 5690 5685 5682 5688 5690 5694 5695 5694 5692 5691 5691 5690 5689 5687 5686 5685 5685 5685 5685 5685 5686 5687 5688 5690 5691 5692 5694 5695 5697 5699
5695 5694 5693 5694 5693 5692 5690 5688 5687 5685 5680 5683 5687 5689 5690 5688 5686 5686 5687 5686 5685 5684 5683 5682 5682 5681 5681 5681 5682 5683 5684 5684 5685 5687 5688 5690 5691 5693
5690 5689 5689 5690 5688 5687 5685 5684 5683 5683 5679 5676 5679 5681 5682 5683 5682 5681 5682 5682 5682 5681 5680 5679 5679 5678 5678 5678 5678 5679 5679 5680 5681 5682 5683 5684 5685 5687
5686 5685 5685 5685 5682 5682 5681 5680 5680 5680 5678 5674 5673 5675 5676 5676 5676 5676 5676 5677 5678 5678 5677 5676 5675 5675 5675 5675 5675 5676 5676 5676 5677 5677 5678 5679 5680 5681
5683 5683 5682 5680 5677 5677 5677 5676 5675 5674 5672 5670 5669 5669 5669 5669 5669 5668 5668 5669 5671 5673 5672 5672 5672 5672 5672 5672 5673 5673 5674 5674 5674 5674 5674 5675 5675 5676
5678 5678 5676 5675 5673 5672 5671 5669 5669 5667 5666 5664 5663 5663 5662 5662 5661 5662 5661 5662 5664 5666 5666 5667 5667 5668 5668 5669 5670 5671 5671 5671 5671 5671 5671 5671 5671 5671
5670 5671 5671 5670 5668 5667 5666 5665 5664 5661 5659 5658 5657 5657 5657 5658 5657 5657 5655 5654 5654 5659 5659 5660 5662 5663 5665 5666 5668 5669 5669 5669 5669 5668 5668 5668 5667 5667
5665 5665 5667 5665 5663 5662 5660 5659 5658 5657 5656 5654 5653 5652 5652 5653 5653 5651 5651 5650 5650 5653 5653 5653 5656 5657 5660 5663 5664 5666 5666 5666 5665 5665 5664 5664 5664 5663
5659 5660 5659 5657 5656 5655 5654 5654 5653 5651 5652 5651 5650 5650 5650 5650 5649 5648 5647 5646 5646 5646 5647 5645 5649 5651 5654 5656 5658 5660 5661 5661 5660 5660 5660 5659 5659 5658
5651 5651 5651 5648 5647 5647 5648 5647 5646 5646 5647 5647 5646 5645 5645 5644 5644 5642 5640 5639 5638 5640 5641 5640 5642 5644 5647 5649 5652 5653 5653 5653 5653 5653 5653 5653 5652 5652
5642 5642 5641 5640 5639 5639 5639 5639 5637 5638 5640 5640 5639 5639 5638 5638 5638 5637 5635 5633 5633 5633 5635 5634 5635 5636 5637 5641 5643 5644 5645 5645 5645 5645 5646 5645 5645 5644
5633 5633 5631 5632 5632 5632 5632 5631 5630 5631 5633 5634 5633 5633 5632 5632 5632 5632 5632 5630 5628 5628 5630 5629 5629 5629 5628 5630 5633 5635 5636 5637 5637 5638 5638 5637 5636 5635
5624 5624 5623 5624 5624 5624 5625 5625 5626 5626 5627 5626 5625 5624 5623 5624 5625 5626 5627 5627 5627 5626 5626 5625 5623 5622 5621 5621 5623 5626 5628 5629 5628 5629 5629 5629 5627 5626
5615 5616 5616 5616 5617 5618 5618 5618 5619 5619 5618 5617 5616 5616 5617 5618 5619 5620 5620 5621 5621 5621 5620 5620 5618 5617 5615 5614 5614 5616 5617 5619 5619 5619 5619 5618 5618 5617
5610 5610 5611 5611 5611 5611 5611 5612 5612 5611 5611 5610 5610 5611 5612 5612 5612 5612 5612 5613 5612 5612 5613 5613 5612 5611 5609 5608 5607 5607 5607 5607 5608 5609 5608 5608 5608 5607
5605 5605 5604 5604 5603 5603 5603 5604 5604 5604 5604 5604 5604 5604 5604 5605 5605 5606 5605 5605 5604 5603 5604 5605 5606 5605 5604 5602 5600 5599 5598 5597 5597 5597 5597 5595 5595 5595
5600 5597 5596 5596 5595 5595 5595 5595 5595 5596 5597 5597 5598 5598 5598 5598 5598 5599 5599 5598 5597 5596 5596 5596 5596 5596 5595 5594 5591 5590 5588 5587 5586 5586 5585 5582 5581 5581
5594 5592 5591 5590 5590 5590 5589 5589 5589 5590 5591 5591 5591 5592 5592 5593 5593 5592 5592 5591 5591 5590 5590 5589 5588 5586 5582 5581 5581 5580 5578 5577 5575 5574 5572 5570 5568 5566
5590 5588 5587 5587 5586 5586 5585 5585 5585 5586 5586 5586 5586 5586 5586 5587 5587 5586 5586 5585 5585 5584 5583 5582 5580 5577 5574 5572 5572 5571 5570 5567 5565 5562 5560 5558 5556 5553
5588 5586 5585 5585 5584 5583 5583 5583 5583 5582 5582 5582 5582 5582 5582 5582 5582 5582 5582 5581 5580 5579 5577 5576 5575 5573 5571 5569 5565 5562 5560 5558 5555 5550 5548 5545 5543 5540
5590 5588 5586 5585 5584 5583 5583 5583 5582 5581 5580 5580 5580 5580 5580 5580 5579 5579 5579 5578 5577 5576 5574 5573 5572 5570 5566 5562 5558 5555 5551 5549 5545 5541 5538 5534 5529 5525
5592 5590 5588 5587 5586 5585 5584 5583 5583 5581 5580 5579 5579 5579 5579 5578 5578 5577 5577 5576 5575 5573 5571 5570 5568 5566 5562 5558 5553 5549 5545 5541 5538 5534 5529 5525 5521 5516